{"data":{"norad_id":64809,"intl_designator":"2025-150V","name":"STARLINK-34675","alt_names":[],"object_type":"PAYLOAD","status":"ACTIVE","operator":null,"country":"US","launch_date":"2025-07-16","launch_site_code":"AFWTR","launch_vehicle":null,"mission":null,"orbit_class":"UNKNOWN","rcs_meters":null,"size_class":null,"mass_kg":null,"dimensions":null,"purposes":["comms"],"wikipedia_slug":null,"has_3d_model":false,"image_url":null,"decayed_at":null,"tle_current":{"epoch":"2026-05-24T20:08:38.344416Z","epoch_age_seconds":88603,"freshness":"FRESH","line1":"1 64809U 25150V   26144.83933269  .00002975  00000+0  25699-3 0  9996","line2":"2 64809  70.0004 302.4416 0002950 266.1219  93.9602 14.98335854 47924","mean_motion":14.98335854,"eccentricity":0.000295,"inclination_deg":70.0004,"raan_deg":302.4416,"arg_perigee_deg":266.1219,"mean_anomaly_deg":93.9602,"bstar":0.00025699,"rev_number":4792,"period_min":96.106623635531,"perigee_km":569.9874864288,"apogee_km":574.08808955371,"semimajor_km":6950.1747879913,"source":"CELESTRAK","updated_at":"2026-05-25T13:38:20.568867Z"}}}